OPS 4682 DEB, 38405

Orbit data source: Space-Track

OPS 4682 DEB, 38405 is space debris in LEO originally from a launch on Sat, 03 Apr 1965 UTC launched from the Air Force Western Test Range (AFWTR). Debris objects in space refer to the collection of defunct objects orbiting the Earth. Examples of debris include non-operational satellites, rocket bodies, and fragments generated from explosions, collisions, or faulty payload assembly.

Loading next visibility...
Identifier
38405, 1965-027DJ
Orbit
LEO
Country
Flag of USUS
Related business
Manufacturer
Unknown
Mission
Spacecraft
Bus & Motor
Unknown
Mass
Unknown
Launch date (UTC)
1965-04-03 (61 years ago)
Launch vehicle
Unknown
Launch site
Air Force Western Test Range (AFWTR)
Object type
Payload
Rocket body
Debris
Shape & HBR
Unknown shape, 0.1 m
Radar Cross Section
Small (<0.1 m²)

Expand to show TLE details & history
Last TLE update: 3 days ago

TLE from 3 days ago
0 OPS 4682 DEB
1 38405U 65027DJ  25300.46605169 -.00000078  00000-0 -28678-3 0  9998
2 38405  90.2632  16.5895 0019603  50.6991 309.5865 12.99416311634834
Epoch: 2025-10-27T11:11Z
TLE epoch observation values (Epoch: 2025-10-27T11:11:06.866Z)
Latitude
-0.00003°
Longitude
172.7434°
Altitude
1,257.726 km
Speed
7.231 km/s
True Right ascension
01h 06m 21s
True Declination
0° 00' 00"
Sunlit
Object was in full shadow at epoch
Visualization orbit readout
Latitude
Unknown
Longitude
Unknown
Altitude
Unknown
Speed
Unknown
Apparent Right ascension
Unknown
Apparent Declination
Unknown
Sunlit
N/A
Visualization observer readout
Local Sidereal Time
22:27:20
Azimuth
Unknown
Elevation
Unknown
Doppler factor
Unknown
Orbital elements
Apogee altitude
1,276.478 km
Perigee altitude
1,246.526 km
Semi-major axis
7,639.639 km
Eccentricity
0.00196
Inclination
90.2632°
RAAN
16.5895°
Arg. of periapsis
50.6991°
True anomaly
309.41311°
Mean anomaly
309.5865°
Eccentric anomaly
309.49983°
Mean motion
3.25038 °/min
Orbital period
110.76 mins
BSTAR
-0.00028678
Loading maneuver chart data...
Computing Atmospheric mass density...
Loading historical data...
Loading historical data...
Loading historical data...
Loading historical data...
Loading historical data...
Loading historical data...
Loading historical data...

Documentation

Showing up to 5 results
|